| time (UTC) | temp F | wind direction | speed knots | gust knots | rain 1hr in | rain 24hr in | rain mn in | humidity % | barometer mb |
| 20260506014812 | 64 | 161 | 0.0 | 2.6 | 0.00 | 0.00 | 0.00 | 50 | 1013.6 |
| 20260506014309 | 64 | 265 | 1.7 | 2.6 | 0.00 | 0.00 | 0.00 | 48 | 1013.4 |
| 20260506013806 | 64 | 103 | 2.6 | 2.6 | 0.00 | 0.00 | 0.00 | 49 | 1012.9 |
| 20260506013303 | 64 | 275 | 1.7 | 2.6 | 0.00 | 0.00 | 0.00 | 49 | 1013.2 |
| 20260506012759 | 62 | 278 | 0.9 | 1.7 | 0.00 | 0.00 | 0.00 | 53 | 1013.2 |
| 20260506012256 | 62 | 142 | 0.0 | 0.9 | 0.00 | 0.00 | 0.00 | 55 | 1013.0 |
| 20260506011754 | 63 | 109 | 0.0 | 0.0 | 0.00 | 0.00 | 0.00 | 54 | 1013.0 |
| 20260506011250 | 63 | 281 | 0.0 | 0.0 | 0.00 | 0.00 | 0.00 | 51 | 1013.0 |
| 20260506010748 | 63 | 235 | 0.0 | 0.0 | 0.00 | 0.00 | 0.00 | 52 | 1013.3 |
| 20260506010245 | 63 | 283 | 0.0 | 0.9 | 0.00 | 0.00 | 0.00 | 51 | 1013.2 |
| 20260506005743 | 63 | 138 | 0.0 | 0.9 | 0.00 | 0.00 | 0.00 | 52 | 1012.8 |
| 20260506005239 | 63 | 110 | 0.0 | 0.9 | 0.00 | 0.00 | 0.00 | 51 | 1012.8 |
| 20260506004735 | 63 | 282 | 0.0 | 1.7 | 0.00 | 0.00 | 0.00 | 55 | 1012.9 |
| 20260506004233 | 64 | 114 | 0.0 | 0.9 | 0.00 | 0.00 | 0.00 | 49 | 1012.7 |
| 20260506003728 | 64 | 127 | 0.0 | 0.9 | 0.00 | 0.00 | 0.00 | 51 | 1012.8 |
| 20260506003225 | 65 | 179 | 0.0 | 1.7 | 0.00 | 0.00 | 0.00 | 49 | 1012.7 |
| 20260506002721 | 64 | 247 | 0.0 | 0.9 | 0.00 | 0.00 | 0.00 | 50 | 1012.7 |
| 20260506002218 | 64 | 121 | 0.0 | 0.9 | 0.00 | 0.00 | 0.00 | 47 | 1012.9 |
| 20260506001713 | 64 | 147 | 0.0 | 0.0 | 0.00 | 0.00 | 0.00 | 49 | 1012.8 |
| 20260506001211 | 65 | 142 | 0.0 | 0.9 | 0.00 | 0.00 | 0.00 | 48 | 1012.8 |
| 20260506000708 | 64 | 234 | 0.0 | 2.6 | 0.00 | 0.00 | 0.00 | 49 | 1012.5 |
| 20260506000206 | 65 | 289 | 0.0 | 1.7 | 0.00 | 0.00 | 0.00 | 45 | 1012.8 |
| 20260505235703 | 66 | 239 | 0.9 | 1.7 | 0.00 | 0.00 | 0.00 | 41 | 1012.6 |
| 20260505235200 | 66 | 207 | 0.9 | 1.7 | 0.00 | 0.00 | 0.00 | 45 | 1012.6 |
| 20260505234657 | 67 | 156 | 0.9 | 1.7 | 0.00 | 0.00 | 0.00 | 41 | 1012.2 |
| 20260505234154 | 68 | 152 | 0.0 | 1.7 | 0.00 | 0.00 | 0.00 | 42 | 1012.2 |
| 20260505233651 | 68 | 125 | 0.0 | 0.9 | 0.00 | 0.00 | 0.00 | 41 | 1012.1 |
| 20260505233149 | 70 | 239 | 0.0 | 1.7 | 0.00 | 0.00 | 0.00 | 35 | 1012.2 |
| 20260505232646 | 71 | 223 | 1.7 | 3.5 | 0.00 | 0.00 | 0.00 | 32 | 1012.3 |
| 20260505232143 | 71 | 181 | 3.5 | 6.1 | 0.00 | 0.00 | 0.00 | 29 | 1012.2 |
| 20260505231640 | 72 | 207 | 4.3 | 8.7 | 0.00 | 0.00 | 0.00 | 30 | 1012.0 |
| 20260505231139 | 74 | 188 | 4.3 | 6.1 | 0.00 | 0.00 | 0.00 | 30 | 1012.4 |
| 20260505230637 | 74 | 130 | 3.5 | 3.5 | 0.00 | 0.00 | 0.00 | 30 | 1012.1 |
| 20260505230133 | 74 | 205 | 7.0 | 9.6 | 0.00 | 0.00 | 0.00 | 28 | 1012.1 |
| 20260505225629 | 75 | 215 | 3.5 | 8.7 | 0.00 | 0.00 | 0.00 | 30 | 1012.2 |
| 20260505225125 | 74 | 232 | 3.5 | 11.3 | 0.00 | 0.00 | 0.00 | 31 | 1012.3 |
| 20260505224622 | 75 | 280 | 5.2 | 7.8 | 0.00 | 0.00 | 0.00 | 30 | 1012.5 |
| 20260505224120 | 74 | 219 | 2.6 | 6.1 | 0.00 | 0.00 | 0.00 | 32 | 1012.5 |
| 20260505223617 | 74 | 214 | 2.6 | 9.6 | 0.00 | 0.00 | 0.00 | 33 | 1012.7 |
| 20260505223113 | 74 | 219 | 3.5 | 6.1 | 0.00 | 0.00 | 0.00 | 34 | 1012.8 |
| 20260505222609 | 73 | 249 | 3.5 | 8.7 | 0.00 | 0.00 | 0.00 | 33 | 1012.7 |
| 20260505222106 | 73 | 246 | 7.0 | 11.3 | 0.00 | 0.00 | 0.00 | 31 | 1012.6 |
| 20260505221603 | 74 | 176 | 6.1 | 9.6 | 0.00 | 0.00 | 0.00 | 31 | 1012.6 |
| 20260505221059 | 75 | 248 | 6.1 | 8.7 | 0.00 | 0.00 | 0.00 | 32 | 1012.6 |
| 20260505220556 | 75 | 273 | 6.1 | 13.9 | 0.00 | 0.00 | 0.00 | 31 | 1012.5 |
| 20260505220054 | 75 | 257 | 4.3 | 8.7 | 0.00 | 0.00 | 0.00 | 32 | 1012.6 |
| 20260505215552 | 73 | 209 | 6.1 | 9.6 | 0.00 | 0.00 | 0.00 | 30 | 1012.7 |
| 20260505215049 | 75 | 223 | 7.8 | 13.0 | 0.00 | 0.00 | 0.00 | 30 | 1012.7 |
| 20260505214548 | 76 | 241 | 10.4 | 16.5 | 0.00 | 0.00 | 0.00 | 28 | 1012.6 |
| 20260505214044 | 76 | 214 | 5.2 | 12.2 | 0.00 | 0.00 | 0.00 | 30 | 1012.6 |
| 20260505213542 | 76 | 354 | 3.5 | 8.7 | 0.00 | 0.00 | 0.00 | 30 | 1012.6 |
| 20260505213038 | 76 | 205 | 8.7 | 13.0 | 0.00 | 0.00 | 0.00 | 26 | 1012.8 |
| 20260505212535 | 76 | 243 | 2.6 | 11.3 | 0.00 | 0.00 | 0.00 | 28 | 1012.6 |
| 20260505212032 | 76 | 228 | 9.6 | 13.9 | 0.00 | 0.00 | 0.00 | 28 | 1012.4 |
| 20260505211529 | 76 | 220 | 9.6 | 14.8 | 0.00 | 0.00 | 0.00 | 26 | 1012.6 |
| 20260505211025 | 76 | 200 | 6.1 | 7.8 | 0.00 | 0.00 | 0.00 | 27 | 1012.4 |
| 20260505210522 | 76 | 192 | 7.8 | 11.3 | 0.00 | 0.00 | 0.00 | 26 | 1012.3 |
| 20260505210020 | 76 | 212 | 10.4 | 15.6 | 0.00 | 0.00 | 0.00 | 26 | 1012.5 |
| 20260505205518 | 76 | 250 | 4.3 | 18.2 | 0.00 | 0.00 | 0.00 | 24 | 1012.3 |
| 20260505205014 | 76 | 224 | 4.3 | 13.9 | 0.00 | 0.00 | 0.00 | 25 | 1012.5 |
| 20260505204512 | 76 | 218 | 5.2 | 13.0 | 0.00 | 0.00 | 0.00 | 26 | 1012.4 |
| 20260505204009 | 77 | 203 | 6.1 | 12.2 | 0.00 | 0.00 | 0.00 | 25 | 1012.3 |
| 20260505203506 | 77 | 236 | 6.1 | 13.0 | 0.00 | 0.00 | 0.00 | 28 | 1012.3 |
| 20260505203003 | 77 | 237 | 7.0 | 13.0 | 0.00 | 0.00 | 0.00 | 26 | 1012.4 |
| 20260505202459 | 77 | 194 | 6.1 | 19.1 | 0.00 | 0.00 | 0.00 | 27 | 1012.3 |
| 20260505201954 | 77 | 223 | 3.5 | 12.2 | 0.00 | 0.00 | 0.00 | 24 | 1012.3 |
| 20260505201452 | 76 | 235 | 5.2 | 13.0 | 0.00 | 0.00 | 0.00 | 26 | 1012.5 |
| 20260505200949 | 76 | 225 | 5.2 | 11.3 | 0.00 | 0.00 | 0.00 | 27 | 1012.5 |
| 20260505200447 | 76 | 208 | 3.5 | 13.9 | 0.00 | 0.00 | 0.00 | 30 | 1012.5 |
| 20260505195943 | 75 | 196 | 7.8 | 13.9 | 0.00 | 0.00 | 0.00 | 27 | 1012.6 |
| 20260505195440 | 76 | 168 | 7.8 | 13.9 | 0.00 | 0.00 | 0.00 | 27 | 1012.4 |
| 20260505194937 | 76 | 293 | 7.8 | 12.2 | 0.00 | 0.00 | 0.00 | 28 | 1012.4 |
| 20260505194434 | 77 | 233 | 3.5 | 6.1 | 0.00 | 0.00 | 0.00 | 33 | 1012.5 |
| 20260505193934 | 76 | 279 | 6.1 | 13.9 | 0.00 | 0.00 | 0.00 | 27 | 1012.6 |
| 20260505193432 | 77 | 165 | 8.7 | 12.2 | 0.00 | 0.00 | 0.00 | 26 | 1012.7 |
| 20260505192930 | 77 | 142 | 4.3 | 15.6 | 0.00 | 0.00 | 0.00 | 27 | 1012.6 |
| 20260505192428 | 76 | 228 | 9.6 | 14.8 | 0.00 | 0.00 | 0.00 | 25 | 1012.8 |
| 20260505191925 | 77 | 192 | 7.8 | 13.0 | 0.00 | 0.00 | 0.00 | 26 | 1012.8 |
| 20260505191424 | 77 | 244 | 5.2 | 13.9 | 0.00 | 0.00 | 0.00 | 27 | 1012.7 |
| 20260505190920 | 77 | 200 | 10.4 | 14.8 | 0.00 | 0.00 | 0.00 | 30 | 1012.7 |
| 20260505190416 | 76 | 209 | 9.6 | 18.2 | 0.00 | 0.00 | 0.00 | 29 | 1012.9 |
| 20260505185911 | 76 | 226 | 5.2 | 16.5 | 0.00 | 0.00 | 0.00 | 30 | 1012.9 |
| 20260505185409 | 77 | 241 | 5.2 | 9.6 | 0.00 | 0.00 | 0.00 | 31 | 1012.7 |
| 20260505184904 | 76 | 263 | 5.2 | 13.0 | 0.00 | 0.00 | 0.00 | 31 | 1012.8 |
| 20260505184401 | 77 | 290 | 5.2 | 9.6 | 0.00 | 0.00 | 0.00 | 34 | 1012.9 |
| 20260505183858 | 77 | 179 | 5.2 | 14.8 | 0.00 | 0.00 | 0.00 | 32 | 1012.8 |
| 20260505183355 | 77 | 189 | 8.7 | 11.3 | 0.00 | 0.00 | 0.00 | 32 | 1013.2 |
| 20260505182852 | 76 | 244 | 4.3 | 7.8 | 0.00 | 0.00 | 0.00 | 34 | 1013.2 |
| 20260505182349 | 77 | 199 | 7.0 | 9.6 | 0.00 | 0.00 | 0.00 | 33 | 1012.9 |
| 20260505181845 | 77 | 225 | 5.2 | 15.6 | 0.00 | 0.00 | 0.00 | 33 | 1013.3 |
| 20260505181343 | 77 | 258 | 5.2 | 9.6 | 0.00 | 0.00 | 0.00 | 35 | 1013.4 |
| 20260505180839 | 77 | 220 | 7.0 | 13.0 | 0.00 | 0.00 | 0.00 | 32 | 1013.4 |
| 20260505180336 | 77 | 262 | 5.2 | 7.0 | 0.00 | 0.00 | 0.00 | 33 | 1013.2 |
| 20260505175832 | 77 | 202 | 5.2 | 7.8 | 0.00 | 0.00 | 0.00 | 31 | 1013.5 |
| 20260505175329 | 77 | 261 | 3.5 | 7.8 | 0.00 | 0.00 | 0.00 | 32 | 1013.6 |
| 20260505174825 | 76 | 150 | 2.6 | 9.6 | 0.00 | 0.00 | 0.00 | 31 | 1013.7 |
| 20260505174323 | 76 | 213 | 7.8 | 13.9 | 0.00 | 0.00 | 0.00 | 32 | 1013.4 |
| 20260505173819 | 77 | 336 | 5.2 | 11.3 | 0.00 | 0.00 | 0.00 | 32 | 1013.8 |
| 20260505173315 | 76 | 257 | 3.5 | 6.1 | 0.00 | 0.00 | 0.00 | 37 | 1013.7 |
| 20260505172813 | 76 | 218 | 7.0 | 9.6 | 0.00 | 0.00 | 0.00 | 32 | 1013.7 |
| 20260505172310 | 77 | 184 | 7.0 | 11.3 | 0.00 | 0.00 | 0.00 | 33 | 1013.8 |
| 20260505171804 | 76 | 231 | 3.5 | 7.0 | 0.00 | 0.00 | 0.00 | 34 | 1014.1 |
| 20260505171301 | 76 | 225 | 4.3 | 11.3 | 0.00 | 0.00 | 0.00 | 33 | 1014.1 |
| 20260505170758 | 76 | 263 | 5.2 | 11.3 | 0.00 | 0.00 | 0.00 | 36 | 1014.1 |
| 20260505170255 | 75 | 217 | 7.8 | 13.9 | 0.00 | 0.00 | 0.00 | 34 | 1014.3 |
| 20260505165750 | 75 | 206 | 4.3 | 9.6 | 0.00 | 0.00 | 0.00 | 33 | 1014.2 |
| 20260505165246 | 75 | 273 | 6.1 | 9.6 | 0.00 | 0.00 | 0.00 | 35 | 1014.4 |
| 20260505164742 | 74 | 206 | 5.2 | 8.7 | 0.00 | 0.00 | 0.00 | 37 | 1014.4 |
| 20260505164239 | 75 | 268 | 6.1 | 11.3 | 0.00 | 0.00 | 0.00 | 37 | 1014.3 |
| 20260505163737 | 74 | 188 | 5.2 | 11.3 | 0.00 | 0.00 | 0.00 | 37 | 1014.5 |
| 20260505163236 | 74 | 189 | 3.5 | 11.3 | 0.00 | 0.00 | 0.00 | 37 | 1014.4 |
| 20260505162732 | 73 | 162 | 5.2 | 11.3 | 0.00 | 0.00 | 0.00 | 38 | 1014.6 |
| 20260505162229 | 73 | 200 | 4.3 | 7.8 | 0.00 | 0.00 | 0.00 | 39 | 1014.8 |
| 20260505161726 | 73 | 207 | 7.0 | 11.3 | 0.00 | 0.00 | 0.00 | 38 | 1014.6 |
| 20260505161224 | 73 | 284 | 6.1 | 8.7 | 0.00 | 0.00 | 0.00 | 35 | 1014.7 |
| 20260505160721 | 72 | 237 | 7.8 | 13.9 | 0.00 | 0.00 | 0.00 | 39 | 1015.1 |
| 20260505160219 | 73 | 259 | 9.6 | 12.2 | 0.00 | 0.00 | 0.00 | 35 | 1015.2 |
| 20260505153158 | 71 | 200 | 7.0 | 13.0 | 0.00 | 0.00 | 0.00 | 41 | 1015.5 |
| 20260505152654 | 71 | 170 | 9.6 | 13.0 | 0.00 | 0.00 | 0.00 | 40 | 1015.6 |
| 20260505152150 | 71 | 222 | 6.1 | 9.6 | 0.00 | 0.00 | 0.00 | 42 | 1015.4 |
| 20260505151646 | 71 | 219 | 5.2 | 9.6 | 0.00 | 0.00 | 0.00 | 42 | 1015.3 |
| 20260505151143 | 71 | 285 | 3.5 | 9.6 | 0.00 | 0.00 | 0.00 | 41 | 1015.3 |
| 20260505150639 | 71 | 188 | 7.8 | 9.6 | 0.00 | 0.00 | 0.00 | 40 | 1015.5 |
| 20260505150137 | 71 | 253 | 3.5 | 7.8 | 0.00 | 0.00 | 0.00 | 42 | 1015.2 |
| 20260505140605 | 69 | 232 | 6.1 | 8.7 | 0.00 | 0.00 | 0.00 | 46 | 1015.6 |
| 20260505125018 | 64 | 276 | 4.3 | 6.1 | 0.00 | 0.00 | 0.00 | 54 | 1015.5 |
| 20260505124515 | 64 | 209 | 1.7 | 3.5 | 0.00 | 0.00 | 0.00 | 59 | 1015.6 |
| 20260505124011 | 64 | 264 | 0.0 | 5.2 | 0.00 | 0.00 | 0.00 | 52 | 1015.6 |
| 20260505123508 | 63 | 215 | 4.3 | 7.0 | 0.00 | 0.00 | 0.00 | 58 | 1015.5 |
| 20260505123004 | 62 | 151 | 3.5 | 6.1 | 0.00 | 0.00 | 0.00 | 60 | 1015.6 |
| 20260505122501 | 62 | 275 | 3.5 | 5.2 | 0.00 | 0.00 | 0.00 | 61 | 1015.5 |
| 20260505121958 | 61 | 258 | 0.9 | 6.1 | 0.00 | 0.00 | 0.00 | 61 | 1015.6 |
| 20260505121455 | 59 | 251 | 0.0 | 1.7 | 0.00 | 0.00 | 0.00 | 72 | 1015.7 |
| 20260505120951 | 58 | 191 | 3.5 | 5.2 | 0.00 | 0.00 | 0.00 | 68 | 1015.7 |
| 20260505120447 | 58 | 205 | 2.6 | 5.2 | 0.00 | 0.00 | 0.00 | 70 | 1015.7 |
| 20260505115946 | 57 | 219 | 1.7 | 3.5 | 0.00 | 0.00 | 0.00 | 70 | 1015.7 |
| 20260505115443 | 56 | 53 | 0.9 | 3.5 | 0.00 | 0.00 | 0.00 | 76 | 1015.8 |
| 20260505114942 | 55 | 243 | 3.5 | 6.1 | 0.00 | 0.00 | 0.00 | 76 | 1015.9 |
| 20260505114437 | 55 | 213 | 0.9 | 2.6 | 0.00 | 0.00 | 0.00 | 77 | 1016.1 |
| 20260505113934 | 55 | 216 | 3.5 | 5.2 | 0.00 | 0.00 | 0.00 | 75 | 1016.1 |
| 20260505113430 | 54 | 217 | 4.3 | 6.1 | 0.00 | 0.00 | 0.00 | 75 | 1016.2 |
| 20260505112926 | 53 | 152 | 2.6 | 6.1 | 0.00 | 0.00 | 0.00 | 79 | 1016.0 |
| 20260505112424 | 52 | 191 | 3.5 | 7.0 | 0.00 | 0.00 | 0.00 | 78 | 1016.1 |
| 20260505111920 | 51 | 182 | 1.7 | 2.6 | 0.00 | 0.00 | 0.00 | 82 | 1016.0 |
| 20260505111415 | 51 | 159 | 1.7 | 3.5 | 0.00 | 0.00 | 0.00 | 82 | 1016.1 |
| 20260505110911 | 49 | 191 | 1.7 | 6.1 | 0.00 | 0.00 | 0.00 | 84 | 1016.0 |
| 20260505110408 | 49 | 258 | 0.9 | 1.7 | 0.00 | 0.00 | 0.00 | 86 | 1015.9 |
| 20260505101839 | 49 | 62 | 0.9 | 0.9 | 0.00 | 0.00 | 0.00 | 87 | 1015.3 |
| 20260505101334 | 49 | 146 | 0.9 | 1.7 | 0.00 | 0.00 | 0.00 | 86 | 1015.4 |
| 20260505100830 | 49 | 62 | 0.9 | 0.9 | 0.00 | 0.00 | 0.00 | 85 | 1015.3 |
| 20260505100327 | 49 | 270 | 0.9 | 2.6 | 0.00 | 0.00 | 0.00 | 85 | 1015.2 |
| 20260505095822 | 49 | 167 | 0.9 | 1.7 | 0.00 | 0.00 | 0.00 | 85 | 1015.3 |
| 20260505095321 | 49 | 81 | 0.0 | 0.0 | 0.00 | 0.00 | 0.00 | 86 | 1015.0 |
| 20260505094816 | 49 | 184 | 1.7 | 2.6 | 0.00 | 0.00 | 0.00 | 85 | 1015.2 |
| 20260505094313 | 50 | 283 | 1.7 | 2.6 | 0.00 | 0.00 | 0.00 | 84 | 1015.1 |
| 20260505093808 | 50 | 284 | 0.9 | 1.7 | 0.00 | 0.00 | 0.00 | 84 | 1015.2 |
| 20260505093307 | 50 | 11 | 0.0 | 0.9 | 0.00 | 0.00 | 0.00 | 83 | 1015.1 |
| 20260505092803 | 51 | 221 | 0.0 | 0.9 | 0.00 | 0.00 | 0.00 | 83 | 1015.1 |
| 20260505092304 | 51 | 123 | 0.9 | 3.5 | 0.00 | 0.00 | 0.00 | 81 | 1015.0 |
| 20260505091758 | 51 | 303 | 0.9 | 2.6 | 0.00 | 0.00 | 0.00 | 83 | 1015.0 |
| 20260505091256 | 51 | 213 | 2.6 | 3.5 | 0.00 | 0.00 | 0.00 | 82 | 1015.0 |
| 20260505090754 | 49 | 183 | 3.5 | 5.2 | 0.00 | 0.00 | 0.00 | 84 | 1014.7 |
| 20260505090252 | 49 | 50 | 0.0 | 2.6 | 0.00 | 0.00 | 0.00 | 87 | 1015.2 |
| 20260505085749 | 48 | 296 | 0.9 | 1.7 | 0.00 | 0.00 | 0.00 | 87 | 1014.7 |
| 20260505085247 | 48 | 61 | 0.0 | 0.9 | 0.00 | 0.00 | 0.00 | 87 | 1015.0 |
| 20260505084744 | 49 | 265 | 0.0 | 3.5 | 0.00 | 0.00 | 0.00 | 84 | 1015.0 |
| 20260505084244 | 49 | 258 | 1.7 | 5.2 | 0.00 | 0.00 | 0.00 | 84 | 1015.1 |
| 20260505083740 | 49 | 329 | 0.0 | 0.9 | 0.00 | 0.00 | 0.00 | 87 | 1015.0 |
| 20260505083236 | 50 | 40 | 0.9 | 1.7 | 0.00 | 0.00 | 0.00 | 84 | 1015.0 |
| 20260505082732 | 50 | 30 | 0.9 | 1.7 | 0.00 | 0.00 | 0.00 | 83 | 1014.8 |
| 20260505082230 | 48 | 158 | 4.3 | 5.2 | 0.00 | 0.00 | 0.00 | 88 | 1014.7 |
| 20260505081726 | 47 | 333 | 0.9 | 0.9 | 0.00 | 0.00 | 0.00 | 88 | 1014.6 |
| 20260505081223 | 49 | 277 | 0.0 | 0.9 | 0.00 | 0.00 | 0.00 | 87 | 1014.7 |
| 20260505080720 | 47 | 190 | 3.5 | 5.2 | 0.00 | 0.00 | 0.00 | 88 | 1014.6 |
| 20260505080215 | 47 | 228 | 1.7 | 3.5 | 0.00 | 0.00 | 0.00 | 89 | 1014.7 |
| 20260505075711 | 47 | 67 | 0.0 | 0.9 | 0.00 | 0.00 | 0.00 | 90 | 1014.6 |
| 20260505075209 | 47 | 149 | 0.0 | 0.9 | 0.00 | 0.00 | 0.00 | 90 | 1014.7 |
| 20260505074706 | 47 | 167 | 0.0 | 0.9 | 0.00 | 0.00 | 0.00 | 90 | 1014.5 |
| 20260505074203 | 47 | 222 | 0.0 | 2.6 | 0.00 | 0.00 | 0.00 | 90 | 1014.7 |
| 20260505073701 | 47 | 269 | 0.0 | 0.9 | 0.00 | 0.00 | 0.00 | 91 | 1014.3 |
| 20260505073159 | 47 | 7 | 0.0 | 0.0 | 0.00 | 0.00 | 0.00 | 91 | 1014.5 |
| 20260505072654 | 46 | 352 | 0.0 | 0.0 | 0.00 | 0.00 | 0.00 | 92 | 1014.3 |
| 20260505072151 | 47 | 43 | 0.0 | 0.9 | 0.00 | 0.00 | 0.00 | 92 | 1014.3 |
| 20260505071646 | 46 | 204 | 0.0 | 0.9 | 0.00 | 0.00 | 0.00 | 92 | 1014.4 |
| 20260505071144 | 46 | 71 | 0.0 | 0.0 | 0.00 | 0.00 | 0.00 | 93 | 1014.4 |
| 20260505070641 | 46 | 78 | 0.0 | 0.0 | 0.00 | 0.00 | 0.00 | 93 | 1014.3 |
| 20260505070137 | 46 | 77 | 0.0 | 0.0 | 0.00 | 0.00 | 0.00 | 92 | 1014.3 |
| 20260505065633 | 46 | 97 | 0.0 | 0.0 | 0.00 | 0.00 | 0.00 | 92 | 1014.5 |
| 20260505065130 | 46 | 66 | 1.7 | 1.7 | 0.00 | 0.00 | 0.00 | 92 | 1014.6 |
| 20260505064627 | 46 | 82 | 0.0 | 0.0 | 0.00 | 0.00 | 0.00 | 92 | 1014.5 |
| 20260505064125 | 46 | 64 | 0.0 | 0.9 | 0.00 | 0.00 | 0.00 | 92 | 1014.6 |
| 20260505063622 | 46 | 63 | 0.0 | 0.9 | 0.00 | 0.00 | 0.00 | 92 | 1014.6 |
| 20260505063118 | 46 | 80 | 0.0 | 0.0 | 0.00 | 0.00 | 0.00 | 92 | 1014.4 |
| 20260505062615 | 46 | 69 | 0.9 | 0.9 | 0.00 | 0.00 | 0.00 | 92 | 1014.6 |
| 20260505062112 | 46 | 194 | 0.0 | 0.0 | 0.00 | 0.00 | 0.00 | 92 | 1014.5 |
| 20260505061609 | 47 | 74 | 0.0 | 0.0 | 0.00 | 0.00 | 0.00 | 91 | 1014.4 |
| 20260505061108 | 47 | 71 | 0.0 | 0.0 | 0.00 | 0.00 | 0.00 | 91 | 1014.5 |
| 20260505060605 | 47 | 99 | 0.0 | 0.0 | 0.00 | 0.00 | 0.00 | 90 | 1014.5 |
| 20260505055556 | 47 | 72 | 0.0 | 0.0 | 0.00 | 0.00 | 0.00 | 91 | 1014.5 |
| 20260505055053 | 47 | 63 | 0.0 | 0.9 | 0.00 | 0.00 | 0.00 | 91 | 1014.7 |
| 20260505054550 | 47 | 119 | 0.0 | 0.0 | 0.00 | 0.00 | 0.00 | 89 | 1014.5 |
| 20260505054049 | 48 | 131 | 0.0 | 0.0 | 0.00 | 0.00 | 0.00 | 89 | 1014.7 |
| 20260505053545 | 48 | 50 | 0.0 | 0.0 | 0.00 | 0.00 | 0.00 | 88 | 1014.5 |
| 20260505053042 | 49 | 99 | 0.0 | 0.0 | 0.00 | 0.00 | 0.00 | 87 | 1014.5 |
| 20260505052539 | 49 | 187 | 1.7 | 2.6 | 0.00 | 0.00 | 0.00 | 86 | 1014.6 |
| 20260505052037 | 49 | 152 | 2.6 | 2.6 | 0.00 | 0.00 | 0.00 | 87 | 1014.6 |
| 20260505051533 | 49 | 146 | 0.9 | 2.6 | 0.00 | 0.00 | 0.00 | 87 | 1014.6 |
| 20260505051032 | 49 | 97 | 0.0 | 0.0 | 0.00 | 0.00 | 0.00 | 87 | 1014.6 |
| 20260505050529 | 49 | 301 | 0.9 | 1.7 | 0.00 | 0.00 | 0.00 | 86 | 1014.4 |
| 20260505041457 | 49 | 200 | 0.0 | 0.0 | 0.00 | 0.00 | 0.00 | 87 | 1014.3 |
| 20260505040954 | 49 | 133 | 0.0 | 0.9 | 0.00 | 0.00 | 0.00 | 87 | 1014.2 |
| 20260505040452 | 50 | 259 | 0.0 | 0.0 | 0.00 | 0.00 | 0.00 | 86 | 1014.2 |
| 20260505035948 | 51 | 160 | 0.0 | 0.9 | 0.00 | 0.00 | 0.00 | 84 | 1014.3 |
| 20260505035444 | 51 | 192 | 1.7 | 3.5 | 0.00 | 0.00 | 0.00 | 83 | 1014.3 |
| 20260505034942 | 49 | 109 | 0.9 | 1.7 | 0.00 | 0.00 | 0.00 | 86 | 1014.3 |
| 20260505034438 | 49 | 226 | 0.0 | 0.0 | 0.00 | 0.00 | 0.00 | 87 | 1014.3 |
| 20260505033935 | 49 | 163 | 0.0 | 0.0 | 0.00 | 0.00 | 0.00 | 87 | 1014.4 |
| 20260505033432 | 49 | 229 | 0.0 | 0.0 | 0.00 | 0.00 | 0.00 | 86 | 1014.4 |
| 20260505032930 | 50 | 192 | 0.0 | 0.0 | 0.00 | 0.00 | 0.00 | 86 | 1014.3 |
| 20260505032427 | 50 | 210 | 0.0 | 0.9 | 0.00 | 0.00 | 0.00 | 86 | 1014.4 |
| 20260505031923 | 50 | 135 | 0.0 | 0.9 | 0.00 | 0.00 | 0.00 | 85 | 1014.4 |
| 20260505031421 | 50 | 149 | 0.0 | 0.9 | 0.00 | 0.00 | 0.00 | 85 | 1014.4 |
| 20260505030918 | 50 | 188 | 0.0 | 1.7 | 0.00 | 0.00 | 0.00 | 85 | 1014.5 |
| 20260505030413 | 51 | 160 | 0.9 | 0.9 | 0.00 | 0.00 | 0.00 | 85 | 1014.3 |
| 20260505025909 | 50 | 144 | 0.0 | 1.7 | 0.00 | 0.00 | 0.00 | 84 | 1014.5 |
| 20260505025407 | 50 | 296 | 0.0 | 0.9 | 0.00 | 0.00 | 0.00 | 86 | 1014.4 |
| 20260505024905 | 50 | 143 | 0.0 | 0.0 | 0.00 | 0.00 | 0.00 | 86 | 1014.5 |
| 20260505024403 | 50 | 150 | 0.0 | 0.9 | 0.00 | 0.00 | 0.00 | 85 | 1014.6 |
| 20260505023859 | 50 | 178 | 0.0 | 0.0 | 0.00 | 0.00 | 0.00 | 85 | 1014.6 |
| 20260505023356 | 50 | 179 | 0.0 | 0.0 | 0.00 | 0.00 | 0.00 | 86 | 1014.4 |
| 20260505022853 | 51 | 176 | 0.0 | 0.9 | 0.00 | 0.00 | 0.00 | 85 | 1014.6 |
| 20260505022350 | 51 | 146 | 0.0 | 0.0 | 0.00 | 0.00 | 0.00 | 85 | 1014.7 |
| 20260505021848 | 51 | 153 | 0.9 | 0.9 | 0.00 | 0.00 | 0.00 | 85 | 1014.7 |
| 20260505021344 | 51 | 125 | 0.0 | 0.0 | 0.00 | 0.00 | 0.00 | 85 | 1014.6 |
| 20260505020840 | 51 | 120 | 0.0 | 0.0 | 0.00 | 0.00 | 0.00 | 85 | 1014.7 |
| 20260505020336 | 52 | 141 | 0.0 | 1.7 | 0.00 | 0.00 | 0.00 | 83 | 1014.6 |
| 20260505015833 | 52 | 99 | 0.0 | 0.9 | 0.00 | 0.00 | 0.00 | 83 | 1014.7 |
| 20260505015330 | 52 | 338 | 0.0 | 0.9 | 0.00 | 0.00 | 0.00 | 83 | 1014.7 |